Flag for Kuwait Weather past 2 weeks in Kuwait City, Kuwait

Now
93 °F

Clear.


Feels Like: 95 °F
Forecast: 72 / 95 °F
Wind: 8 mph from East

Location: Kuwait International Airport


UV Index: 7 (High)

Visibility: 4 mi


Pressure: 29.80 "Hg

Humidity: 39%

Dew point: 64 °F

Location of Kuwait CityLocation

Historic Weather in Kuwait City

°F

Kuwait City temperature yesterday

Maximum temperature yesterday: 97 °F (at 9:00 AM)
Minimum temperature yesterday: 79 °F (at 2:00 AM)
Average temperature yesterday: 87 °F

Past Weeks' High & Low Weather Summary

 TemperatureHumidityPressure
High102 °F (Apr 18, 11:00 AM)73% (Apr 10, 6:00 AM)30.04 "Hg (Apr 10, 6:00 AM)
Low66 °F (Apr 10, 2:00 AM)7% (Apr 9, 12:00 PM)29.74 "Hg (Apr 18, 12:00 AM)
Average85 °F28%29.87 "Hg
* Reported Apr 8 2:00 PM — Apr 23 2:00 PM, Kuwait City, Weather by CustomWeather, © 2014

Note: Actual official high and low records may vary slightly from our data, if they occured in-between our weather recording intervals... More about our weather records

Advertising

Historic Weather Conditions — Data for Previous 24 hours

 ConditionsComfort  
Time TempWeatherWind HumidityBarometerVisibility
2:00 PM
Apr 23
93 °FClear.5 mph41%29.80 "Hg4 mi
1:00 PM102 °FClear.8 mph15%29.77 "Hg4 mi
12:00 PM100 °FClear.6 mph15%29.80 "Hg4 mi
11:00 AM95 °FBroken clouds.12 mph23%29.83 "Hg4 mi
10:00 AM93 °FPartly sunny.15 mph26%29.86 "Hg4 mi
9:00 AM90 °FSunny.16 mph36%29.86 "Hg5 mi
8:00 AM86 °FPartly sunny.20 mph43%29.86 "Hg4 mi
7:00 AM84 °FPartly sunny.16 mph40%29.83 "Hg5 mi
6:00 AM81 °FPartly sunny.10 mph45%29.83 "Hg5 mi
5:00 AM82 °FPassing clouds.16 mph35%29.83 "HgN/A
4:00 AM84 °FPassing clouds.6 mph31%29.80 "HgN/A
3:00 AM82 °FPassing clouds.8 mph32%29.83 "HgN/A
2:00 AM82 °FPassing clouds.7 mph37%29.83 "HgN/A
1:00 AM82 °FPassing clouds.10 mph37%29.83 "HgN/A
12:00 AM82 °FClear.13 mph40%29.83 "Hg10 mi
11:00 PM
Apr 22
82 °FClear.10 mph42%29.83 "Hg10 mi
10:00 PM82 °FClear.12 mph42%29.86 "Hg10 mi
9:00 PM84 °FClear.12 mph35%29.86 "Hg10 mi
8:00 PM84 °FClear.13 mph33%29.83 "Hg10 mi
7:00 PM86 °FPassing clouds.14 mph33%29.86 "Hg4 mi
6:00 PM88 °FScattered clouds.13 mph29%29.83 "Hg4 mi
5:00 PM90 °FPartly sunny.16 mph27%29.86 "Hg4 mi
4:00 PM91 °FPartly sunny.7 mph26%29.86 "Hg4 mi
3:00 PM91 °FPartly sunny.16 mph24%29.86 "Hg4 mi
Weather by CustomWeather, © 2014

See weather overview